Tracking 33485 objects as of 15-Mar-2026
HD Live streaming from Space Station
objects crossing your sky now

STARLINK-36712

Track STARLINK-36712 now!
10-day predictions
STARLINK-36712 is classified as:


NORAD ID: 67700
Int'l Code: 2026-025H
Perigee: 350.0 km
Apogee: 352.4 km
Inclination: 97.3 °
Period: 91.4 minutes
Semi major axis: 6722 km
RCS: Unknown
Launch date: February 7, 2026
Source: United States (US)
Launch site: AIR FORCE WESTERN TEST RANGE (AFWTR)
Your satellite tracking list
Your tracking list is empty




NASA's NSSDC Master Catalog

Two Line Element Set (TLE):
1 67700U 26025H   26074.30319060  .00206567  00000-0  13515-2 0  9999
2 67700  97.2854 186.1582 0001770  70.4195 289.7261 15.75207578  6827
Source of the keplerian elements: AFSPC